New Bedford, MA

4:49 AM EDT on September 25, 2017 (GMT -0400)
New Bedford Regional

Weather History for KEWB - October, 2012

Change the Weather History Date:

Saturday, October 20, 2012

  Actual Average Record
Temperature  
Mean Temperature 64 °F -  
Max Temperature 72 °F 59 °F 77 °F (1984)
Min Temperature 55 °F 44 °F 28 °F (2003)
Degree Days  
Heating Degree Days 1    
Growing Degree Days 14 (Base 50)    
Moisture  
Dew Point 62 °F    
Average Humidity 89    
Maximum Humidity 100    
Minimum Humidity 64    
Precipitation  
Precipitation 0.07 in - - ()
Sea Level Pressure  
Sea Level Pressure 29.70 in    
Wind  
Wind Speed 9 mph (SSW)    
Max Wind Speed 20 mph    
Max Gust Speed 28 mph    
Visibility 6 miles    
Events Rain , Thunderstorm    
Averages and records for this station are not official NWS values.
T = Trace of Precipitation, MM = Missing Value Source: NWS Daily Summary

Daily Weather History Graph

Daily Weather History Graph

Search for Another Location

Airport or City:

Trip Planner

Search our weather history database for the weather conditions in past years. The results will help you decide how hot, cold, wet, or windy it might be!

Date:

Astronomy

Oct. 20, 2012 Rise Set
Actual Time 7:02 AM EDT 5:54 PM EDT
Civil Twilight 6:33 AM EDT 6:22 PM EDT
Nautical Twilight 6:01 AM EDT 6:54 PM EDT
Astronomical Twilight 5:29 AM EDT 7:26 PM EDT
Moon 12:37 PM EDT (10/20) 10:34 PM EDT (10/20)
Length of Visible Light 11h 48m
Length of Day
10h 52m
Waxing Crescent, 34% of the Moon is Illuminated
Oct 20
Waxing Crescent
Oct 21
First Quarter
Oct 29
Full
Nov 6
Last Quarter
Nov 13
New

Hourly Weather History & Observations

Time (EDT) Temp. Dew Point Humidity Pressure Visibility Wind Dir Wind Speed Gust Speed Precip Events Conditions
12:23 AM 66.2 °F 64.4 °F 94% 29.77 in 4.0 mi SSE 15.0 mph - 0.00 in Rain , Thunderstorm Light Rain
12:45 AM 68.0 °F 66.2 °F 94% 29.76 in 8.0 mi SSW 9.2 mph 18.4 mph 0.01 in Rain , Thunderstorm Light Rain
12:53 AM 68.0 °F 66.0 °F 93% 29.76 in 9.0 mi West 9.2 mph - 0.01 in Rain , Thunderstorm Light Rain
1:24 AM 68.0 °F 64.4 °F 88% 29.75 in 10.0 mi SSW 5.8 mph - 0.00 in   Overcast
1:40 AM 68.0 °F 64.4 °F 88% 29.74 in 9.0 mi South 9.2 mph - 0.00 in   Overcast
1:53 AM 69.1 °F 66.9 °F 93% 29.73 in 7.0 mi South 10.4 mph - 0.00 in   Overcast
2:18 AM 69.8 °F 66.2 °F 88% 29.71 in 9.0 mi South 11.5 mph - N/A   Scattered Clouds
2:53 AM 69.1 °F 64.9 °F 87% 29.70 in 8.0 mi SSW 19.6 mph 27.6 mph 0.01 in Rain Light Rain
3:53 AM 68.0 °F 64.0 °F 87% 29.70 in 10.0 mi SSW 12.7 mph 21.9 mph 0.01 in Rain Light Rain
4:29 AM 68.0 °F 64.4 °F 88% 29.73 in 6.0 mi SW 9.2 mph - 0.01 in Rain Light Rain
4:53 AM 66.9 °F 64.9 °F 93% 29.71 in 9.0 mi South 8.1 mph - 0.02 in   Overcast
5:02 AM 66.2 °F 64.4 °F 94% 29.71 in 8.0 mi South 6.9 mph - N/A   Overcast
5:53 AM 66.0 °F 64.0 °F 93% 29.69 in 4.0 mi Calm Calm - 0.01 in Rain Light Rain
6:26 AM 66.2 °F 64.4 °F 94% 29.69 in 2.0 mi South 3.5 mph - 0.00 in Rain Light Rain
6:53 AM 66.0 °F 64.0 °F 93% 29.69 in 2.0 mi SSE 3.5 mph - 0.00 in   Overcast
7:46 AM 66.2 °F 64.4 °F 94% 29.68 in 1.0 mi Calm Calm - N/A   Overcast
7:53 AM 66.0 °F 64.9 °F 96% 29.69 in 1.0 mi Calm Calm - N/A   Overcast
8:40 AM 66.2 °F 64.4 °F 94% 29.69 in 1.0 mi South 5.8 mph - N/A   Overcast
8:51 AM 66.2 °F 64.4 °F 94% 29.69 in 3.0 mi South 6.9 mph - N/A   Overcast
8:53 AM 66.0 °F 64.9 °F 96% 29.70 in 3.0 mi South 8.1 mph - N/A   Overcast
9:39 AM 64.4 °F 64.4 °F 100% 29.69 in 1.0 mi South 10.4 mph - N/A   Overcast
9:53 AM 64.9 °F 64.0 °F 97% 29.68 in 1.0 mi South 10.4 mph - N/A   Overcast
10:53 AM 66.0 °F 64.0 °F 93% 29.69 in 1.0 mi South 9.2 mph - N/A   Overcast
11:19 AM 66.2 °F 64.4 °F 94% 29.68 in 3.0 mi SSW 15.0 mph 18.4 mph N/A   Overcast
11:53 AM 66.0 °F 64.0 °F 93% 29.67 in 4.0 mi SSW 11.5 mph - N/A   Overcast
12:46 PM 64.4 °F 62.6 °F 94% 29.65 in 6.0 mi SW 10.4 mph - N/A   Overcast
12:53 PM 64.9 °F 62.1 °F 90% 29.66 in 7.0 mi WSW 10.4 mph - N/A   Overcast
1:27 PM 69.8 °F 62.6 °F 78% 29.64 in 10.0 mi West 6.9 mph - N/A   Mostly Cloudy
1:53 PM 70.0 °F 60.1 °F 71% 29.65 in 10.0 mi SW 5.8 mph - N/A   Clear
2:53 PM 71.6 °F 59.0 °F 64% 29.64 in 10.0 mi SSW 11.5 mph - N/A   Clear
3:53 PM 64.9 °F 59.0 °F 81% 29.65 in 10.0 mi SSW 15.0 mph - N/A   Clear
4:30 PM 62.6 °F 59.0 °F 88% 29.67 in 8.0 mi SSW 11.5 mph - N/A   Partly Cloudy
4:53 PM 62.1 °F 59.0 °F 90% 29.66 in 7.0 mi South 10.4 mph - N/A   Mostly Cloudy
5:01 PM 62.6 °F 57.2 °F 82% 29.66 in 8.0 mi SSW 8.1 mph - N/A   Scattered Clouds
5:53 PM 62.1 °F 57.0 °F 84% 29.67 in 8.0 mi SW 8.1 mph - N/A   Scattered Clouds
6:53 PM 60.1 °F 55.9 °F 86% 29.68 in 8.0 mi SSW 8.1 mph - N/A   Clear
7:53 PM 59.0 °F 55.9 °F 90% 29.70 in 6.0 mi SSW 4.6 mph - N/A   Clear
8:53 PM 59.0 °F 55.9 °F 90% 29.72 in 6.0 mi SW 6.9 mph - N/A   Clear
9:53 PM 60.1 °F 55.9 °F 86% 29.73 in 10.0 mi SW 8.1 mph - N/A   Clear
10:53 PM 57.9 °F 52.0 °F 81% 29.75 in 10.0 mi WSW 6.9 mph - 0.01 in   Clear
11:53 PM 55.9 °F 46.9 °F 72% 29.75 in 10.0 mi WSW 6.9 mph - N/A   Clear